Location: Musselshell
(46.5176°N, 108.0911°W)
Time: 02:35:06
(UTC+00:00)

SEEDS - Pass Details

Date: 05 July 2022
Orbit: 580 x 597 km, 97.6° (Epoch: 17 August)

Event Time Altitude Azimuth Distance (km) Brightness Sun altitude
Rises 10:18:35 0° 31° (NNE) 2,812 ? -9.5°
Reaches altitude 10° 10:21:38 10° 55° (NE) 1,904 ? -9.1°
Maximum altitude 10:23:57 15° 90° (E) 1,620 ? -8.9°
Drops below altitude 10° 10:26:16 10° 124° (SE) 1,895 ? -8.6°
Sets 10:29:17 0° 149° (SSE) 2,788 ? -8.2°
